Exeter, United Kingdom

4:40 AM BST on June 28, 2017 (GMT +0100)
Exeter

Weather History for EGTE - August, 2013

Change the Weather History Date:

Tuesday, August 20, 2013

  Actual Average Record
Temperature  
Mean Temperature 56 °F -  
Max Temperature 72 °F 65 °F 74 °F (2012)
Min Temperature 41 °F 50 °F 37 °F (2014)
Degree Days  
Heating Degree Days 8    
Growing Degree Days 6 (Base 50)    
Moisture  
Dew Point 52 °F    
Average Humidity 74    
Maximum Humidity 100    
Minimum Humidity 46    
Precipitation  
Precipitation 0.00 in - - ()
Sea Level Pressure  
Sea Level Pressure 30.34 in    
Wind  
Wind Speed 4 mph ()    
Max Wind Speed 12 mph    
Max Gust Speed -    
Visibility 6.2 miles    
Events Fog    
Averages and records for this station are not official NWS values.
T = Trace of Precipitation, MM = Missing Value Source: Averaged Metar Reports

Daily Weather History Graph

Daily Weather History Graph

Search for Another Location

Airport or City:

Trip Planner

Search our weather history database for the weather conditions in past years. The results will help you decide how hot, cold, wet, or windy it might be!

Date:

Astronomy

Aug. 20, 2013 Rise Set
Actual Time 6:09 AM BST 8:23 PM BST
Civil Twilight 5:33 AM BST 8:59 PM BST
Nautical Twilight 4:48 AM BST 9:44 PM BST
Astronomical Twilight 3:55 AM BST 10:35 PM BST
Moon 7:40 PM BST (8/20) 5:23 AM BST (8/20)
Length of Visible Light 15h 26m
Length of Day
14h 14m
Waxing Gibbous, 99% of the Moon is Illuminated
Aug 20
Waxing Gibbous
Aug 21
Full
Aug 28
Last Quarter
Sep 5
New
Sep 12
First Quarter

Hourly Weather History & Observations

Time (BST) Temp. Windchill Dew Point Humidity Pressure Visibility Wind Dir Wind Speed Gust Speed Precip Events Conditions
12:20 AM 50.0 °F - 48.2 °F 94% 30.36 in - Variable 1.2 mph - N/A   Clear
12:50 AM 47 °F - 46 °F 96%  in - Calm Calm - -  
12:50 AM 50.0 °F - 46.4 °F 87% 30.36 in - East 3.5 mph - N/A   Clear
1:20 AM 48.2 °F - 46.4 °F 93% 30.33 in - Variable 1.2 mph - N/A   Clear
1:50 AM 48.2 °F - 48.2 °F 100% 30.33 in - Variable 3.5 mph - N/A   Clear
2:20 AM 50.0 °F - 48.2 °F 94% 30.36 in - Variable 1.2 mph - N/A   Clear
2:50 AM 48.2 °F - 48.2 °F 100% 30.36 in - East 3.5 mph - N/A   Clear
3:50 AM 45 °F - 44 °F 96%  in - Calm Calm - -  
5:20 AM 46.4 °F - 46.4 °F 100% 30.36 in - Calm Calm - N/A   Clear
5:50 AM 46.4 °F 45.2 °F 46.4 °F 100% 30.36 in 6.2 mi North 3.5 mph - N/A Fog Patches of Fog
6:20 AM 46.4 °F - 44.6 °F 93% 30.36 in 6.2 mi North 1.2 mph - N/A Fog Patches of Fog
6:50 AM 45 °F - 44 °F 95%  in - Calm Calm - -  
7:50 AM 50.0 °F - 50.0 °F 100% 30.36 in - Variable 1.2 mph - N/A   Clear
8:20 AM 53.6 °F - 50.0 °F 88% 30.36 in - Variable 1.2 mph - N/A   Clear
8:50 AM 55.4 °F - 51.8 °F 88% 30.36 in - Variable 1.2 mph - N/A   Clear
9:20 AM 59.0 °F - 55.4 °F 88% 30.36 in - Variable 1.2 mph - N/A   Clear
9:50 AM 64 °F - 55 °F 64%  in - Calm Calm - -  
9:50 AM 59.0 °F - 55.4 °F 88% 30.36 in 6.2 mi Variable 2.3 mph - N/A   Partly Cloudy
10:20 AM 64.4 °F - 55.4 °F 73% 30.36 in 6.2 mi Variable 3.5 mph - N/A   Partly Cloudy
10:50 AM 66.2 °F - 53.6 °F 64% 30.36 in 6.2 mi SSW 4.6 mph - N/A   Partly Cloudy
11:20 AM 68.0 °F - 53.6 °F 60% 30.39 in 6.2 mi SSW 6.9 mph - N/A   Partly Cloudy
11:50 AM 68.0 °F - 53.6 °F 60% 30.39 in 6.2 mi South 8.1 mph - N/A   Partly Cloudy
12:20 PM 68.0 °F - 51.8 °F 56% 30.36 in 6.2 mi South 9.2 mph - N/A   Scattered Clouds
12:50 PM 68 °F - 53 °F 49%  in - Calm Calm - -  
12:50 PM 68.0 °F - 51.8 °F 56% 30.36 in - SSW 8.1 mph - N/A   Partly Cloudy
1:20 PM 69.8 °F - 53.6 °F 56% 30.36 in 6.2 mi South 9.2 mph - N/A   Partly Cloudy
1:50 PM 69.8 °F - 53.6 °F 56% 30.36 in 6.2 mi South 9.2 mph - N/A   Partly Cloudy
2:20 PM 69.8 °F - 55.4 °F 60% 30.36 in 6.2 mi South 11.5 mph - N/A   Partly Cloudy
2:50 PM 68.0 °F - 55.4 °F 64% 30.36 in 6.2 mi South 11.5 mph - N/A   Partly Cloudy
3:20 PM 68.0 °F - 55.4 °F 64% 30.36 in 6.2 mi SSE 11.5 mph - N/A   Partly Cloudy
3:50 PM 71 °F - 54 °F 46%  in - Calm Calm - -  
3:50 PM 69.8 °F - 53.6 °F 56% 30.33 in 6.2 mi South 11.5 mph - N/A   Partly Cloudy
4:20 PM 69.8 °F - 53.6 °F 56% 30.33 in 6.2 mi South 11.5 mph - N/A   Partly Cloudy
4:50 PM 69.8 °F - 55.4 °F 60% 30.33 in 6.2 mi South 11.5 mph - N/A   Partly Cloudy
5:20 PM 69.8 °F - 53.6 °F 56% 30.33 in 6.2 mi South 11.5 mph - N/A   Partly Cloudy
5:50 PM 68.0 °F - 55.4 °F 64% 30.33 in 6.2 mi South 10.4 mph - N/A   Partly Cloudy
6:20 PM 68.0 °F - 53.6 °F 60% 30.30 in 6.2 mi South 9.2 mph - N/A   Partly Cloudy
6:50 PM 68 °F - 54 °F 50%  in - Calm Calm - -  
6:50 PM 68.0 °F - 53.6 °F 60% 30.30 in 6.2 mi South 10.4 mph - N/A   Partly Cloudy
7:20 PM 66.2 °F - 55.4 °F 68% 30.30 in - South 10.4 mph - N/A   Clear
7:50 PM 68.0 °F - 53.6 °F 60% 30.30 in 6.2 mi SSW 6.9 mph - N/A   Partly Cloudy
8:20 PM 66.2 °F - 55.4 °F 68% 30.30 in 6.2 mi West 5.8 mph - N/A   Partly Cloudy
8:50 PM 66.2 °F - 55.4 °F 68% 30.33 in 6.2 mi West 4.6 mph - N/A   Scattered Clouds
9:20 PM 64.4 °F - 55.4 °F 73% 30.33 in 6.2 mi WNW 5.8 mph - N/A   Scattered Clouds
9:50 PM 60 °F - 53 °F 72%  in - Calm Calm - -  
9:50 PM 62.6 °F - 55.4 °F 77% 30.33 in 6.2 mi Variable 1.2 mph - N/A   Partly Cloudy
10:20 PM 60.8 °F - 53.6 °F 77% 30.33 in 6.2 mi WNW 2.3 mph - N/A   Partly Cloudy
10:50 PM 59.0 °F - 55.4 °F 88% 30.33 in 6.2 mi Calm Calm - N/A   Partly Cloudy
11:20 PM 57.2 °F - 53.6 °F 88% 30.33 in - ENE 2.3 mph - N/A   Clear
11:50 PM 55.4 °F - 53.6 °F 94% 30.33 in - Variable 1.2 mph - N/A   Clear